Memphis, TN

5:55 AM CDT on June 28, 2017 (GMT -0500)
Memphis International

Weather History for KMEM - February, 2013

Change the Weather History Date:

Thursday, February 21, 2013

  Actual Average Record
Temperature  
Mean Temperature 41 °F 47 °F  
Max Temperature 47 °F 57 °F 78 °F (1922)
Min Temperature 34 °F 38 °F 15 °F (1963)
Degree Days  
Heating Degree Days 24 18  
Month to date heating degree days 405 430  
Since 1 July heating degree days 2056 2332  
Cooling Degree Days 0 0  
Month to date cooling degree days 0 0  
Year to date cooling degree days 9 1  
Moisture  
Dew Point 32 °F    
Average Humidity 71    
Maximum Humidity 96    
Minimum Humidity 45    
Precipitation  
Precipitation 0.88 in 0.16 in 3.24 in (1971)
Month to date precipitation 3.13 3.25  
Year to date precipitation 12.85 7.23  
Snow  
Snow T in 0.10 in 1.10 in (1968)
Month to date snowfall T 1.1  
Since 1 July snowfall 0.9 3.2  
Snow Depth 0.00 in    
Sea Level Pressure  
Sea Level Pressure 29.92 in    
Wind  
Wind Speed 9 mph (East)    
Max Wind Speed 22 mph    
Max Gust Speed 28 mph    
Visibility 6 miles    
Events Rain , Thunderstorm    
T = Trace of Precipitation, MM = Missing Value Source: NWS Daily Summary

Daily Weather History Graph

Daily Weather History Graph

Search for Another Location

Airport or City:

Trip Planner

Search our weather history database for the weather conditions in past years. The results will help you decide how hot, cold, wet, or windy it might be!

Date:

Astronomy

Feb. 21, 2013 Rise Set
Actual Time 6:38 AM CST 5:48 PM CST
Civil Twilight 6:13 AM CST 6:14 PM CST
Nautical Twilight 5:43 AM CST 6:43 PM CST
Astronomical Twilight 5:14 AM CST 7:13 PM CST
Moon 2:09 PM CST (2/21) 3:37 AM CST (2/21)
Length of Visible Light 12h 01m
Length of Day
11h 09m
Waxing Gibbous, 84% of the Moon is Illuminated
Feb 21
Waxing Gibbous
Feb 25
Full
Mar 4
Last Quarter
Mar 11
New
Mar 19
First Quarter

Hourly Weather History & Observations

Time (CST) Temp. Windchill Dew Point Humidity Pressure Visibility Wind Dir Wind Speed Gust Speed Precip Events Conditions
12:54 AM 35.1 °F 27.4 °F 21.9 °F 59% 30.19 in 10.0 mi ENE 10.4 mph - 0.00 in   Overcast
1:54 AM 35.1 °F 28.6 °F 21.9 °F 59% 30.17 in 10.0 mi ENE 8.1 mph - 0.00 in   Overcast
2:54 AM 35.1 °F 29.3 °F 23.0 °F 61% 30.18 in 10.0 mi ENE 6.9 mph - 0.00 in Rain Light Rain
3:54 AM 35.1 °F 26.4 °F 24.1 °F 64% 30.13 in 10.0 mi ENE 12.7 mph 19.6 mph 0.01 in   Overcast
4:54 AM 33.8 °F 25.8 °F 24.8 °F 70% 30.11 in 10.0 mi ENE 10.4 mph - N/A   Overcast
5:54 AM 34.0 °F 25.0 °F 23.0 °F 64% 30.10 in 10.0 mi East 12.7 mph - N/A   Overcast
6:54 AM 35.1 °F 26.9 °F 23.0 °F 61% 30.09 in 10.0 mi East 11.5 mph - 0.00 in   Overcast
7:54 AM 36.0 °F 28.0 °F 21.9 °F 57% 30.08 in 10.0 mi East 11.5 mph - N/A   Overcast
8:54 AM 37.0 °F 29.3 °F 23.0 °F 57% 30.05 in 10.0 mi East 11.5 mph - N/A   Overcast
9:30 AM 37.4 °F 27.8 °F 24.8 °F 60% 29.98 in 10.0 mi East 17.3 mph - 0.00 in Rain Light Rain
9:54 AM 39.0 °F 31.0 °F 21.9 °F 50% 29.98 in 10.0 mi East 13.8 mph 20.7 mph 0.00 in   Overcast
10:37 AM 39.2 °F 30.2 °F 23.0 °F 52% 29.89 in 10.0 mi East 17.3 mph 26.5 mph 0.00 in   Overcast
10:54 AM 41.0 °F 33.5 °F 21.9 °F 47% 29.91 in 10.0 mi ESE 13.8 mph - 0.00 in   Overcast
11:19 AM 42.8 °F 35.1 °F 23.0 °F 46% 29.88 in 10.0 mi East 16.1 mph - 0.00 in Rain Light Rain
11:42 AM 42.8 °F 36.6 °F 24.8 °F 49% 29.88 in 10.0 mi East 11.5 mph - 0.00 in Rain , Thunderstorm Light Thunderstorms and Rain
11:54 AM 42.1 °F 39.2 °F 25.0 °F 51% 29.91 in 8.0 mi East 4.6 mph - 0.00 in Rain , Thunderstorm Light Thunderstorms and Rain
12:04 PM 42.8 °F 38.0 °F 26.6 °F 53% 29.89 in 2.5 mi ESE 8.1 mph - 0.03 in Rain , Thunderstorm Heavy Thunderstorms and Rain
12:14 PM 39.2 °F 37.0 °F 30.2 °F 70% 29.90 in 1.2 mi East 3.5 mph - 0.09 in Rain , Thunderstorm Heavy Thunderstorms and Rain
12:24 PM 39.2 °F 34.2 °F 30.2 °F 70% 29.89 in 2.5 mi NE 6.9 mph - 0.14 in Rain , Thunderstorm Thunderstorms and Rain
12:35 PM 37.4 °F 34.9 °F 32.0 °F 81% 29.90 in 3.0 mi North 3.5 mph - 0.17 in Rain , Thunderstorm Heavy Thunderstorms and Rain
12:42 PM 37.4 °F 34.9 °F 33.8 °F 87% 29.91 in 1.8 mi North 3.5 mph - 0.19 in Rain , Thunderstorm Heavy Thunderstorms and Rain
12:54 PM 37.9 °F - 34.0 °F 86% 29.92 in 1.2 mi Calm Calm - 0.29 in Rain , Thunderstorm Heavy Thunderstorms and Rain
1:08 PM 37.4 °F 32.1 °F 33.8 °F 87% 29.89 in 2.0 mi East 6.9 mph - 0.07 in Rain , Thunderstorm Heavy Thunderstorms and Rain
1:38 PM 37.4 °F 30.3 °F 35.6 °F 93% 29.84 in 3.0 mi ENE 10.4 mph - 0.16 in Rain Light Rain
1:42 PM 37.4 °F 30.3 °F 35.6 °F 93% 29.85 in 2.5 mi East 10.4 mph - 0.17 in Rain , Thunderstorm Thunderstorms and Rain
1:54 PM 37.9 °F 32.1 °F 35.1 °F 89% 29.86 in 3.0 mi East 8.1 mph - 0.20 in Rain , Thunderstorm Thunderstorms and Rain
2:03 PM 37.4 °F 28.5 °F 35.6 °F 93% 29.81 in 1.5 mi East 15.0 mph - 0.06 in Rain , Thunderstorm Heavy Thunderstorms and Rain
2:26 PM 39.2 °F 29.0 °F 35.6 °F 87% 29.77 in 3.0 mi ESE 21.9 mph - 0.27 in Rain Rain
2:42 PM 39.2 °F 31.6 °F 35.6 °F 87% 29.81 in 6.0 mi East 12.7 mph - 0.28 in Rain Light Rain
2:54 PM 39.9 °F 33.4 °F 37.0 °F 89% 29.80 in 6.0 mi East 10.4 mph - 0.30 in Rain Light Rain
3:54 PM 41.0 °F 33.9 °F 37.9 °F 89% 29.78 in 10.0 mi ESE 12.7 mph 20.7 mph 0.03 in Rain Light Rain
4:54 PM 43.0 °F 37.7 °F 39.9 °F 89% 29.78 in 10.0 mi ESE 9.2 mph - 0.02 in   Overcast
5:54 PM 45.0 °F 38.9 °F 41.0 °F 86% 29.76 in 10.0 mi ESE 12.7 mph - 0.01 in   Overcast
6:54 PM 46.0 °F 41.9 °F 42.1 °F 86% 29.76 in 10.0 mi SE 8.1 mph - 0.00 in   Overcast
7:28 PM 46.4 °F 41.5 °F 42.8 °F 87% 29.75 in 10.0 mi SE 10.4 mph - 0.00 in Rain Light Rain
7:54 PM 46.0 °F 41.0 °F 43.0 °F 89% 29.81 in 4.0 mi WNW 10.4 mph - 0.00 in Rain Light Rain
8:54 PM 45.0 °F - 43.0 °F 93% 29.81 in 6.0 mi Calm Calm - 0.02 in   Overcast
9:38 PM 44.6 °F 40.7 °F 42.8 °F 93% 29.84 in 4.0 mi WNW 6.9 mph - 0.00 in Rain Light Rain
9:54 PM 44.1 °F 41.5 °F 42.1 °F 93% 29.86 in 2.0 mi WNW 4.6 mph - 0.00 in   Overcast
9:59 PM 44.6 °F 41.4 °F 42.8 °F 93% 29.86 in 0.8 mi WNW 5.8 mph - N/A   Overcast
10:54 PM 43.0 °F 38.8 °F 41.0 °F 93% 29.87 in 0.8 mi WNW 6.9 mph - N/A   Overcast
11:54 PM 41.0 °F 36.4 °F 39.0 °F 93% 29.89 in 0.5 mi West 6.9 mph - N/A   Overcast